STARLINK-34515, 64712

Orbit data source: Space-Track

STARLINK-34515, 64712 is a payload satellite owned by SpaceX/Seattle (US) in LEO that was launched on Sat, 28 Jun 2025 UTC via an FALCON 9 launch vehicle from the Air Force Western Test Range (AFWTR). Payload-class satellites include a variety of spacecraft equipped with specific instruments for various scientific and technological missions. These include communications satellites like Starlink; space stations such as the ISS; scientific satellites like the Hubble; Earth observation satellites from companies like Planet Labs, Umbra, and HawkEye 360; GPS; miniature CubeSats for education and research; and military/defense satellites.

Not visible in the next 10 days
Identifier
64712, 2025-142S
Orbit
LEO
Last TLE update
8 hours ago
Origin
Manufacturer
SpaceX/Seattle
Mission
Operational spacecraft
Bus & Motor
STARLINK V2MO, Unknown motor
Mass
575 kg wet, ~530 kg dry
Launch date (UTC)
2025-06-28 (1 week ago)
Launch vehicle
FALCON 9
Launch site
Air Force Western Test Range (AFWTR)
Object type
Payload
Rocket body
Debris
Shape & HBR
Unknown
Radar Cross Section
RCS unknown

Expand to show TLE details & history

TLE from 8 hours ago
0 STARLINK-34515
1 64712U 25142S   25186.58335648 -.01214236  00000-0 -48926-2 0  9990
2 64712  69.9945 231.3127 0003852 277.5276  68.6603 15.88872471  1974
Epoch: 2025-07-05T14:00Z
TLE epoch observation values (Epoch: 2025-07-05T14:00:01.999Z)
Latitude
-13.11724°
Longitude
92.64583°
Altitude
309.64 km
Speed
7.722 km/s
True Right ascension
15h 05m 53s
True Declination
-13° 02' 11"
Sunlit
Object was in full shadow at epoch
Visualization orbit readout
Latitude
44.09808°
Longitude
117.08088°
Altitude
315.523 km
Speed
7.723 km/s
Apparent Right ascension
19h 15m 51s
Apparent Declination
4° 12' 01"
Sunlit
Object is in daylight
Visualization observer readout
Local Sidereal Time
09:45:00
Azimuth
46.905° ENE
Elevation
-34.164°
Doppler factor
1
Orbital elements
Apogee altitude
305.883 km
Perigee altitude
300.736 km
Semi-major axis
6,681.447 km
Eccentricity
0.00039
Inclination
69.9945°
RAAN
231.3127°
Arg. of periapsis
277.5276°
True anomaly
Unknown
Mean anomaly
68.6603°
Eccentric anomaly
Unknown
Mean motion
3.97409 °/min
Orbital period
90.59 mins
BSTAR
-0.0048926
Loading maneuver chart data...
Loading SW <> Apogee altitude chart data...
Loading historical data...
Loading historical data...
Loading historical data...
Loading historical data...
Loading historical data...
Loading historical data...
Loading historical data...

STARLINK-34515 Visibility

Observer location: undefined°, undefined°

STARLINK-34515 is likely not visible in the next few days
Span
Click to sort rows by Start time (UTC) header in descending order
Start Az.
Max El. time (UTC)
Max El. Az.
Max El.
End time (UTC)
End Az.
|